Perryton, Texas, United States (79070)
Lat: 36.40N, Lon: 100.8W
Wx Zone: TXZ004
Local Info
Past Weather Observations for Today

NOTE: This archive is for the closest National Weather Service station to Perryton. Information may differ from the station used for current weather conditions.

Click here for Long-term Archive

Time Weather Temperature Dewpoint Humidity Pressure Winds Precip Visibility
21:35
Overcast
63°F / 17°C 61°F / 16°C 94% 30.09 in
(1019 mb)
SSE 11.5 mph
(SSE 19 kph)
- 10SM
21:15
Overcast
63°F / 17°C 61°F / 16°C 94% 30.09 in
(1019 mb)
S 10.4 mph
(S 17 kph)
- 7SM
20:55
Overcast
63°F / 17°C 61°F / 16°C 94% 30.09 in
(1019 mb)
S 10.4 mph
(S 17 kph)
- 7SM
20:35
Overcast
63°F / 17°C 61°F / 16°C 94% 30.09 in
(1019 mb)
S 13.8 mph
(S 22 kph)
- 10SM
20:15
Overcast
63°F / 17°C 61°F / 16°C 94% 30.09 in
(1019 mb)
S 12.7 mph
(S 20 kph)
- 10SM
19:55
Overcast
63°F / 17°C 61°F / 16°C 94% 30.09 in
(1019 mb)
S 12.7 mph
(S 20 kph)
- 10SM
19:35
Overcast
63°F / 17°C 61°F / 16°C 94% 30.09 in
(1019 mb)
S 12.7 mph
(S 20 kph)
- 10SM
19:15
Overcast
63°F / 17°C 61°F / 16°C 94% 30.09 in
(1019 mb)
S 13.8 mph
(S 22 kph)
- 10SM
18:55
Overcast
63°F / 17°C 61°F / 16°C 94% 30.09 in
(1019 mb)
S 13.8 mph
(S 22 kph)
- 10SM
18:35
Overcast
63°F / 17°C 61°F / 16°C 94% 30.06 in
(1018 mb)
S 13.8 mph
(S 22 kph)
- 10SM
18:15
Overcast
63°F / 17°C 61°F / 16°C 94% 30.06 in
(1018 mb)
S 11.5 mph
(S 19 kph)
- 10SM
17:55
Overcast
63°F / 17°C 61°F / 16°C 94% 30.06 in
(1018 mb)
S 10.4 mph
(S 17 kph)
- 10SM
17:35
Overcast
64°F / 18°C 61°F / 16°C 88% 30.06 in
(1018 mb)
S 11.5 mph
(S 19 kph)
- 10SM
17:15
Overcast
64°F / 18°C 61°F / 16°C 88% 30.06 in
(1018 mb)
S 11.5 mph
(S 19 kph)
- 10SM
16:55
Overcast
64°F / 18°C 61°F / 16°C 88% 30.06 in
(1018 mb)
S 10.4 mph
(S 17 kph)
- 10SM
16:35
Mostly Cloudy
64°F / 18°C 61°F / 16°C 88% 30.06 in
(1018 mb)
S 13.8 mph
(S 22 kph)
- 10SM
16:15
Mostly Cloudy
64°F / 18°C 61°F / 16°C 88% 30.06 in
(1018 mb)
S 13.8 mph
(S 22 kph)
- 10SM
15:55
Mostly Cloudy
64°F / 18°C 61°F / 16°C 88% 30.06 in
(1018 mb)
S 16.1 mph
(S 26 kph)
- 10SM
15:35
Fair
N/A N/A N/A 30.06 in
(1018 mb)
S 18.4 mph
(S 30 kph)
-
15:15
Mostly Cloudy
66°F / 19°C 61°F / 16°C 83% 30.06 in
(1018 mb)
S 11.5 mph
(S 19 kph)
- 10SM
14:55
Mostly Cloudy
68°F / 20°C 63°F / 17°C 83% 30.06 in
(1018 mb)
S 10.4 mph
(S 17 kph)
0.01 in
(0.25 mm)
10SM
14:35
Mostly Cloudy
68°F / 20°C 63°F / 17°C 83% 30.06 in
(1018 mb)
S 10.4 mph
(S 17 kph)
0.01 in
(0.25 mm)
10SM
14:15
Mostly Cloudy
66°F / 19°C 64°F / 18°C 94% 30.06 in
(1018 mb)
SSE 8.1 mph
(SSE 13 kph)
0.01 in
(0.25 mm)
10SM
13:55
Mostly Cloudy
64°F / 18°C 63°F / 17°C 94% 30.06 in
(1018 mb)
S 9.2 mph
(S 15 kph)
- 10SM
13:35
Mostly Cloudy
64°F / 18°C 63°F / 17°C 94% 30.06 in
(1018 mb)
SSE 6.9 mph
(SSE 11 kph)
- 10SM
13:15
Overcast
Drizzle
63°F / 17°C 61°F / 16°C 94% 30.09 in
(1019 mb)
Calm - 10SM
12:55
Mostly Cloudy
Light Rain
63°F / 17°C 61°F / 16°C 94% 30.09 in
(1019 mb)
Calm 0.06 in
(1.52 mm)
10SM
12:35
Mostly Cloudy
Rain
63°F / 17°C 61°F / 16°C 94% 30.09 in
(1019 mb)
Calm 0.04 in
(1.02 mm)
10SM
12:15
Overcast
Light Rain
63°F / 17°C 61°F / 16°C 94% 30.09 in
(1019 mb)
SE 3.5 mph
(SE 6 kph)
0.03 in
(0.76 mm)
7SM
11:55
Overcast
Rain
63°F / 17°C 61°F / 16°C 94% 30.12 in
(1020 mb)
SSE 4.6 mph
(SSE 7 kph)
0.12 in
(3.05 mm)
7SM
11:35
Overcast
Heavy Rain
61°F / 16°C 61°F / 16°C 100% 30.12 in
(1020 mb)
S 8.1 mph
(S 13 kph)
0.07 in
(1.78 mm)
5SM
11:15
Overcast
Rain
63°F / 17°C 61°F / 16°C 94% 30.12 in
(1020 mb)
SW 6.9 mph
(SW 11 kph)
0.03 in
(0.76 mm)
7SM
10:55
Overcast
Rain
63°F / 17°C 59°F / 15°C 88% 30.12 in
(1020 mb)
SW 9.2 mph
(SW 15 kph)
0.03 in
(0.76 mm)
5SM
10:35
Overcast
Light Rain
64°F / 18°C 57°F / 14°C 78% 30.12 in
(1020 mb)
SW 13.8 mph
(SW 22 kph)
- 10SM
10:15
Overcast
66°F / 19°C 55°F / 13°C 68% 30.12 in
(1020 mb)
SSE 9.2 mph
(SSE 15 kph)
- 10SM
09:55
Overcast
64°F / 18°C 55°F / 13°C 73% 30.12 in
(1020 mb)
SSE 8.1 mph
(SSE 13 kph)
- 10SM
09:35
Overcast
63°F / 17°C 54°F / 12°C 73% 30.12 in
(1020 mb)
SSE 4.6 mph
(SSE 7 kph)
- 10SM
09:15
Overcast
63°F / 17°C 54°F / 12°C 73% 30.12 in
(1020 mb)
SW 3.5 mph
(SW 6 kph)
- 10SM
08:55
Overcast
63°F / 17°C 54°F / 12°C 73% 30.12 in
(1020 mb)
SW 4.6 mph
(SW 7 kph)
- 10SM
08:35
Overcast
61°F / 16°C 54°F / 12°C 77% 30.09 in
(1019 mb)
Calm - 10SM
08:15
Overcast
61°F / 16°C 54°F / 12°C 77% 30.09 in
(1019 mb)
S 4.6 mph
(S 7 kph)
- 10SM
07:55
Overcast
61°F / 16°C 54°F / 12°C 77% 30.09 in
(1019 mb)
SSE 3.5 mph
(SSE 6 kph)
- 10SM
07:35
Overcast
59°F / 15°C 54°F / 12°C 82% 30.09 in
(1019 mb)
Calm - 10SM
07:15
Overcast
59°F / 15°C 54°F / 12°C 82% 30.09 in
(1019 mb)
Calm - 10SM
06:55
Mostly Cloudy
59°F / 15°C 52°F / 11°C 77% 30.09 in
(1019 mb)
S 3.5 mph
(S 6 kph)
- 10SM
06:35
Partly Cloudy
59°F / 15°C 52°F / 11°C 77% 30.09 in
(1019 mb)
SSE 4.6 mph
(SSE 7 kph)
- 10SM
06:15
Mostly Cloudy
59°F / 15°C 52°F / 11°C 77% 30.06 in
(1018 mb)
S 8.1 mph
(S 13 kph)
- 10SM
05:55
Partly Cloudy
57°F / 14°C 52°F / 11°C 82% 30.06 in
(1018 mb)
Calm - 10SM
05:35
Clear
55°F / 13°C 52°F / 11°C 88% 30.06 in
(1018 mb)
Calm - 10SM
05:15
Clear
55°F / 13°C 52°F / 11°C 88% 30.06 in
(1018 mb)
Calm - 10SM
04:55
Clear
55°F / 13°C 52°F / 11°C 88% 30.06 in
(1018 mb)
SSW 3.5 mph
(SSW 6 kph)
- 10SM
04:35
Clear
55°F / 13°C 52°F / 11°C 88% 30.06 in
(1018 mb)
SSW 4.6 mph
(SSW 7 kph)
- 10SM
04:15
Clear
55°F / 13°C 52°F / 11°C 88% 30.06 in
(1018 mb)
SSW 4.6 mph
(SSW 7 kph)
- 10SM
03:55
Clear
54°F / 12°C 50°F / 10°C 88% 30.06 in
(1018 mb)
SSW 3.5 mph
(SSW 6 kph)
- 10SM
03:35
Clear
55°F / 13°C 52°F / 11°C 88% 30.06 in
(1018 mb)
SSW 3.5 mph
(SSW 6 kph)
- 10SM
03:15
Clear
55°F / 13°C 52°F / 11°C 88% 30.06 in
(1018 mb)
Calm - 10SM
02:55
Clear
57°F / 14°C 52°F / 11°C 82% 30.06 in
(1018 mb)
SSW 4.6 mph
(SSW 7 kph)
- 10SM
02:35
Clear
57°F / 14°C 52°F / 11°C 82% 30.06 in
(1018 mb)
SSW 8.1 mph
(SSW 13 kph)
- 10SM
02:15
Clear
61°F / 16°C 52°F / 11°C 72% 30.06 in
(1018 mb)
SSW 4.6 mph
(SSW 7 kph)
- 10SM
01:55
Clear
63°F / 17°C 52°F / 11°C 68% 30.06 in
(1018 mb)
S 11.5 mph
(S 19 kph)
- 10SM
01:35
Clear
61°F / 16°C 52°F / 11°C 72% 30.06 in
(1018 mb)
SSE 8.1 mph
(SSE 13 kph)
- 10SM
01:15
Clear
63°F / 17°C 52°F / 11°C 68% 30.06 in
(1018 mb)
S 10.4 mph
(S 17 kph)
- 10SM
00:55
Clear
63°F / 17°C 52°F / 11°C 68% 30.06 in
(1018 mb)
S 12.7 mph
(S 20 kph)
- 10SM
00:35
Clear
63°F / 17°C 52°F / 11°C 68% 30.06 in
(1018 mb)
S 13.8 mph
(S 22 kph)
- 10SM
00:15
Clear
64°F / 18°C 52°F / 11°C 64% 30.06 in
(1018 mb)
S 12.7 mph
(S 20 kph)
- 10SM
Time Weather Temperature Dewpoint Humidity Pressure Winds Precip Visibility


Weather for websites

WeatherForYou.com, LLC is not responsible for any damages or problems caused by this service. Current weather conditions are obtained from the closest station including government and personal stations which may have varying degrees of accuracy. Weather forecasts are derived from the NOAA NDFD. Like all things, this site belongs to Jesus Christ... He just trusts me to maintain it. If you have any questions or comments email webmaster@weatherforyou.com

Copyright © 2014, WeatherForYou.com LLC. All rights reserved.